Regional Weather Roundup
Issued by NWS Midland/Odessa, TX

Skip options and go directly to product.
Home | Oldest Version | Previous Version | Current Version | All | Text Only | Save Text | Print | Product List | Glossary On

Skip product version selection by date and time.   
401
ASUS44 KMAF 190710
RWRMAF
MIDLAND AREA WEATHER ROUNDUP
NATIONAL WEATHER SERVICE MIDLAND TX
200 AM CDT SUN APR 19 2015

...IN SOUTHWEST TEXAS AND SOUTHEAST NEW MEXICO...

CITY           SKY/WX    TMP DP  RH WIND       PRES   REMARKS
ALPINE         CLEAR     60  21  22 W5        30.01S
ANDREWS        FAIR      58  28  32 W9        29.83S
ARTESIA        CLEAR     52  34  50 W8        29.90R
BIG SPRING     CLEAR     59  26  28 S5        29.81F
CARLSBAD       CLEAR     55  31  39 N9        29.87R
DRYDEN           N/A     63  27  25 NW12      29.82S
FORT STOCKTON  CLEAR     57  24  28 SW14      29.86F
GUAD PASS      CLEAR     55  21  26 SW13G18   29.98S
HOBBS          CLEAR     50  37  62 NW8       29.87S
MARFA          CLEAR     45  25  45 N12       30.00S WCI  39
MIDLAND AIRPK  CLEAR     65  24  21 W10       29.82S
MIDLAND INTL   CLEAR     61  27  27 W13       29.82R
ODESSA         CLEAR     57  26  30 W8        29.83S
PECOS          CLEAR     57  26  30 SW12      29.84S
PRESIDIO       FAIR      60  20  21 N7        29.90S
SEMINOLE       CLEAR     53  37  52 NW8       29.85R
SNYDER         CLEAR    N/A N/A N/A S7        29.78S
WINK           CLEAR     53  25  33 W6        29.82R
$$
...OTHER STATIONS IN TEXAS...

CITY           SKY/WX    TMP DP  RH WIND       PRES   REMARKS
ABILENE        CLEAR     56  52  86 S8        29.78F
AMARILLO       PTCLDY    47  41  80 NW7       29.84R
AUSTIN         MOCLDY    58  58 100 NE6       29.83R
BROWNSVILLE    FOG       68  67  96 SE3       29.80F VSB 1/2
CORPUS CHRISTI PTCLDY    70  69  97 CALM      29.82S FOG
DALLAS FTW     CLOUDY    58  56  93 S9        29.76F
DEL RIO        CLEAR     67  65  93 E7        29.80S FOG
EL PASO        PTCLDY    68  16  13 NW14G26   29.94R
HOUSTON INT    PTCLDY    64  57  78 VRB3      29.85F
LUBBOCK        PTCLDY    50  33  52 W9        29.79F
SAN ANGELO     CLEAR     53  46  77 SW8       29.80S
SAN ANTONIO    PTCLDY    67  63  87 S9        29.82F
WACO           CLOUDY    58  56  93 SW6       29.80S
WICHITA FALLS  NOT AVBL
$$
...OTHER LOCATIONS IN NEW MEXICO...

CITY           SKY/WX    TMP DP  RH WIND       PRES   REMARKS
ALAMAGORDO     CLEAR     54  27  35 NE10      29.93S
ALBUQUERQUE    MOCLDY    53  27  36 N14       29.98R
CANNON AFB     NOT AVBL
CLOVIS         CLEAR     46  25  42 NW12      29.85S
HOLLOMAN AFB   CLEAR     51  27  39 NE8       29.92
ROSWELL        CLEAR     55  31  39 NW9       29.88S
RUIDOSO        CLEAR     46  19  34 NW13G22   30.02S
SANTA FE       PTCLDY    41  29  62 NW7       29.96R WCI  36
TRUTH OR CONSE CLEAR     53  25  33 NW12      29.97R
TUCUMCARI      CLEAR     43  27  53 NW6       29.87R WCI  39
$$

USA.gov is the U.S. government's official web portal to all federal, state and local government web resources and services.